Theta_e
322 317 312 309 310 308 303 300 295 291 295 291 290 291 293 300 301 299 298 300 306 305 323 327 327 326 319 315 317 317 321 319 317 307 303 317 338 338 341 343 345 346 347 349 349 349 349 353 353 353 353 353 351 352 353 353 353 352 353 353 353 353 353 353 353 353 353 354 354 353 354 353 353 353 353 352 352 351 350 350 350 349 348 349 348 348 347 347 345 344 345 345 345 344 344 344 343
316 313 310 309 307 305 299 297 290 290 288 288 291 292 295 299 299 298 298 300 307 314 324 327 328 328 329 328 328 325 321 327 327 322 330 338 339 339 342 345 345 345 347 348 348 349 349 351 353 353 352 352 351 352 352 353 352 353 353 353 353 353 353 353 353 353 353 353 354 354 353 353 353 353 352 351 351 350 351 350 350 350 350 349 349 349 348 347 346 344 344 345 345 344 344 344 343
315 311 309 308 302 301 300 296 293 287 289 286 289 292 297 297 297 298 299 300 312 323 325 324 325 325 326 322 319 317 315 331 331 331 332 338 332 335 342 345 345 346 346 347 347 348 349 351 353 352 352 352 351 352 353 352 352 352 352 353 352 353 353 353 353 353 353 353 353 353 353 353 352 353 352 351 351 351 350 350 350 350 350 349 348 348 348 348 348 347 346 345 344 344 344 344 343
306 310 308 300 301 295 294 290 286 286 287 286 288 294 294 297 299 300 301 301 309 325 322 319 323 327 325 316 322 329 327 329 331 332 331 334 334 339 342 345 347 346 346 347 347 348 349 351 353 352 351 350 351 351 352 351 352 351 352 352 352 353 353 353 353 353 353 353 353 353 353 353 353 352 352 351 351 351 350 350 350 350 350 349 348 348 348 348 347 346 347 346 345 345 344 344 343
304 309 308 298 297 298 293 293 289 286 287 286 290 294 297 299 299 300 302 302 303 316 306 321 322 326 328 324 328 321 317 331 332 335 333 336 341 341 344 345 345 345 345 347 348 348 348 351 352 351 350 350 350 352 351 351 351 351 352 352 352 353 353 353 353 353 353 353 353 353 353 353 352 352 352 351 351 350 350 350 350 349 349 348 347 346 346 346 346 345 345 345 345 346 346 345 344
303 303 307 304 301 297 293 292 290 288 291 290 291 294 296 299 300 301 302 303 302 303 303 316 320 322 322 324 327 323 333 326 333 334 335 335 340 344 344 345 344 344 345 347 348 347 347 351 352 351 350 349 350 351 351 351 351 351 351 352 352 353 353 353 353 353 353 353 353 353 353 352 352 352 352 351 350 350 350 349 350 349 349 348 347 346 346 346 345 345 345 345 345 345 344 345 344
305 300 299 301 299 296 289 286 287 288 293 293 294 297 298 300 301 300 301 301 302 302 315 322 325 322 319 326 329 334 339 338 334 333 337 339 342 343 344 344 343 343 345 346 347 347 348 351 351 351 350 350 351 350 351 351 350 350 351 352 352 352 353 352 353 353 353 353 353 352 352 352 352 352 351 350 350 350 349 349 349 348 347 346 347 346 346 345 346 346 346 346 346 345 345 345 345
312 302 299 295 292 293 290 287 288 287 290 295 295 297 299 300 301 299 300 299 299 299 321 325 324 318 318 334 322 334 336 337 336 339 340 341 341 342 343 343 342 343 345 345 346 348 352 351 351 351 350 350 350 350 350 350 350 350 351 351 352 352 353 353 353 353 353 352 352 352 352 352 351 351 351 351 350 349 349 349 348 347 346 348 348 346 345 346 347 346 346 346 346 346 345 346 345
303 300 300 293 293 289 286 288 289 290 291 293 295 299 308 303 303 300 300 301 301 300 320 322 322 314 316 328 326 333 333 336 338 340 339 339 339 340 342 342 341 342 343 345 346 347 348 351 351 350 349 350 349 350 350 350 351 350 351 352 352 353 353 353 353 352 352 352 352 352 352 351 351 351 350 350 350 349 349 349 348 349 348 347 344 344 346 346 347 346 346 347 347 347 347 347 346
302 300 293 292 288 289 286 285 288 290 293 295 297 298 300 301 300 300 299 299 300 300 312 323 322 313 324 323 327 330 329 336 337 336 337 338 339 340 340 341 342 342 342 344 345 345 347 351 350 350 349 349 349 349 350 350 351 351 352 352 353 353 352 352 352 352 352 352 352 351 351 351 350 350 349 349 347 348 348 348 348 347 347 345 344 344 345 346 347 346 346 346 346 347 347 346 347
298 297 294 293 289 286 287 286 288 291 291 293 295 298 300 301 300 300 300 300 301 298 315 325 321 324 327 325 325 334 334 334 333 332 337 339 339 339 339 341 342 343 342 343 344 345 346 347 350 350 349 349 350 350 350 351 351 352 352 352 352 352 352 352 352 351 351 351 351 351 350 350 349 349 348 347 347 346 345 344 344 343 344 345 345 345 345 346 346 347 346 346 346 346 345 347 346
295 294 297 289 287 288 286 288 290 291 292 293 293 297 299 300 300 297 299 298 299 298 300 323 319 330 325 327 328 331 332 332 333 336 338 338 338 338 339 341 342 343 343 343 344 343 344 345 346 348 349 350 350 350 350 351 351 352 352 352 352 352 352 352 352 351 351 351 351 350 349 349 348 348 347 346 346 345 344 344 343 343 344 344 345 345 344 345 345 346 346 346 346 346 347 346 346
295 292 288 288 285 287 288 288 288 292 292 292 295 297 300 298 298 299 299 299 299 297 298 320 332 331 322 326 332 333 330 333 337 337 337 337 338 339 340 341 343 343 343 343 341 341 341 342 344 345 348 350 350 349 350 351 352 352 352 352 352 352 352 352 351 351 351 350 350 349 349 348 347 347 346 345 345 344 343 343 343 343 343 343 344 344 344 344 345 345 346 346 346 346 346 346 347
298 294 292 289 287 288 288 287 286 290 289 292 295 299 300 298 297 298 298 297 298 297 300 327 332 332 328 330 330 329 332 336 337 337 337 337 338 339 340 342 341 341 341 341 340 340 340 341 343 344 346 346 347 350 352 351 352 352 352 351 352 352 351 351 351 351 350 350 350 349 348 347 346 345 345 344 343 343 342 342 342 342 343 343 343 342 343 343 343 344 345 345 346 346 345 346 347
298 294 292 288 286 287 288 289 289 289 290 293 296 297 297 301 299 298 297 297 296 315 330 334 333 327 322 327 326 330 333 336 337 337 337 338 339 340 340 341 340 340 340 340 340 340 340 341 342 344 345 345 346 348 348 351 352 352 351 352 351 351 351 351 351 350 350 349 349 348 347 347 346 345 344 343 342 341 341 341 341 341 342 342 341 342 341 343 343 342 344 342 346 344 346 347 347
298 295 290 289 286 288 287 289 289 288 290 292 296 298 297 299 299 297 299 299 312 330 329 324 331 319 327 330 331 335 335 337 337 337 336 337 338 339 339 339 339 340 340 339 339 339 340 341 342 343 343 343 346 348 348 348 351 352 352 352 352 351 351 351 350 350 350 349 349 348 347 345 345 342 345 340 343 342 341 339 341 341 341 341 341 341 342 341 342 342 342 342 343 344 345 346 345
297 298 290 286 287 287 287 288 289 288 289 294 298 297 296 296 300 299 315 317 324 324 330 331 327 335 333 333 337 337 337 338 337 336 335 335 335 335 336 337 337 338 339 339 338 339 341 342 341 342 342 343 347 349 348 347 350 352 351 352 351 351 351 350 350 350 349 349 347 348 346 338 337 338 336 335 344 337 342 341 340 341 341 341 341 341 342 341 342 342 342 343 344 344 345 345 342
297 292 288 287 287 289 290 292 292 292 294 295 296 297 296 294 297 300 314 329 329 330 331 333 336 336 337 338 338 337 337 335 335 333 333 332 332 332 332 334 335 334 336 337 338 340 341 342 341 341 341 342 347 348 348 347 349 350 348 348 348 349 350 350 348 345 348 341 347 344 338 341 336 333 335 345 339 340 341 343 341 341 341 341 342 342 342 342 342 343 344 345 345 345 344 333 334
295 289 289 289 290 293 294 295 295 293 294 296 297 297 296 297 298 299 302 322 324 325 329 331 331 333 336 336 336 335 335 334 334 333 331 330 330 329 330 332 333 334 334 335 337 340 341 341 340 340 340 343 346 347 348 348 347 346 345 345 347 350 350 349 345 345 338 338 339 338 340 338 336 338 338 341 342 346 341 345 343 342 340 341 341 341 342 342 343 343 344 344 343 341 330 326 327
297 290 290 291 292 294 296 296 296 296 296 296 296 295 296 298 299 300 300 313 323 323 324 329 329 329 332 333 335 334 335 334 334 332 331 331 331 330 330 331 332 332 333 334 336 339 340 340 340 339 341 344 345 346 347 347 347 347 346 345 345 345 344 345 342 339 338 338 338 336 337 338 339 335 347 349 349 339 336 345 344 344 343 344 343 339 341 342 342 341 340 341 336 331 325 325 327
295 294 290 291 293 294 296 296 297 298 297 297 296 296 295 298 299 309 300 313 314 323 328 329 329 330 331 333 334 334 334 334 333 331 331 330 331 331 331 332 331 332 333 335 336 336 338 339 340 340 341 342 345 346 346 346 346 346 345 345 345 344 343 341 340 337 337 337 337 338 337 340 337 334 335 337 334 334 332 330 330 330 331 330 341 328 328 331 330 328 327 330 322 323 324 325 325
296 295 295 290 293 293 296 297 298 297 297 295 295 295 296 298 308 317 313 300 306 320 329 333 333 334 333 333 334 335 333 331 331 330 329 329 329 331 333 332 333 333 334 333 334 336 337 338 339 340 340 340 343 345 345 346 346 344 344 345 345 343 341 340 338 339 336 336 337 338 340 338 335 337 334 334 335 333 333 332 332 331 331 333 336 333 332 331 330 329 327 328 326 323 324 325 324
294 295 297 294 294 296 297 297 297 297 297 295 294 296 298 298 302 317 317 304 309 328 332 335 335 336 336 336 334 330 329 329 328 327 328 328 329 331 332 333 332 332 333 332 334 335 337 338 338 339 339 340 342 345 345 345 344 344 344 344 344 343 341 339 338 337 338 337 337 338 339 335 334 334 333 333 333 333 332 333 333 333 332 333 335 333 333 333 333 331 329 327 323 323 323 323 323
295 293 294 296 297 295 296 298 298 297 296 295 295 299 296 296 294 316 320 324 329 333 337 337 337 336 334 330 329 327 327 327 326 328 328 328 330 331 332 332 334 334 333 333 334 335 337 337 338 339 339 340 341 344 343 343 343 342 343 346 344 344 341 339 337 338 339 338 339 339 341 337 335 333 335 334 334 332 334 334 334 334 334 334 335 335 335 332 332 332 330 328 328 328 326 328 326
295 294 296 296 296 298 299 298 296 296 296 295 295 296 297 296 294 317 319 326 332 333 335 333 332 331 330 328 326 326 326 326 327 328 328 330 331 333 333 334 334 334 332 334 335 335 336 337 338 339 339 340 341 342 342 341 340 340 342 343 342 346 341 339 339 338 339 338 339 340 342 336 333 335 335 334 332 333 333 336 337 337 336 335 334 334 333 333 332 330 329 330 329 330 331 333 334
296 296 298 297 297 296 296 297 299 299 299 296 296 295 296 300 316 318 324 330 331 331 330 329 328 327 326 325 325 325 325 326 327 326 328 330 332 331 331 333 333 332 333 334 334 335 336 338 338 338 339 340 340 341 340 338 339 339 340 342 341 345 340 339 336 336 334 335 336 339 339 335 334 335 334 333 334 334 335 336 336 334 333 334 334 335 334 333 332 331 331 332 334 331 332 335 336
295 296 297 296 298 297 297 295 296 298 298 296 296 294 296 305 311 302 324 332 331 328 327 327 326 324 324 325 325 325 325 325 326 328 329 331 331 330 331 332 332 332 333 333 334 335 337 337 338 339 339 341 340 339 338 337 338 338 339 340 340 341 338 338 336 335 335 336 337 336 337 338 336 335 334 334 335 334 333 332 331 332 331 332 333 336 333 334 333 333 333 331 331 331 332 333 333
295 295 296 296 297 297 297 295 295 296 296 295 296 295 296 307 309 303 324 331 331 327 327 325 324 323 324 324 324 325 325 327 328 328 328 329 329 330 330 331 331 332 332 332 334 336 337 337 337 337 338 339 338 338 339 336 336 338 338 338 338 337 337 335 335 336 338 335 336 336 336 337 338 335 335 335 334 333 331 329 330 330 331 332 334 334 334 335 333 332 333 333 333 331 332 331 331
294 294 290 292 294 295 297 296 296 294 295 295 297 294 292 300 302 304 327 331 329 327 326 325 323 323 324 324 323 324 324 326 327 327 329 330 330 331 330 331 332 331 333 333 334 335 335 336 336 336 336 338 336 336 337 335 335 337 337 336 337 337 336 336 336 336 335 335 334 335 335 335 335 336 334 335 335 330 330 329 330 332 332 333 334 336 334 331 331 330 330 332 332 330 329 330 334
295 294 291 291 290 290 296 297 296 294 295 294 296 287 286 290 300 320 328 329 328 326 325 325 323 322 323 324 324 325 326 327 327 328 329 329 330 330 330 331 333 332 332 333 334 334 336 336 337 336 335 335 335 335 336 335 336 337 337 336 339 336 336 336 337 336 337 335 334 334 334 335 334 333 334 332 331 330 329 330 331 331 333 333 333 333 332 331 331 332 331 329 334 329 329 328 329
288 290 291 286 285 287 292 295 295 294 296 295 297 288 286 289 311 323 327 329 326 323 324 324 323 322 322 323 324 325 326 326 326 327 328 329 329 330 330 331 332 332 333 333 333 334 335 334 334 334 336 334 336 335 336 336 337 337 336 336 336 336 336 335 335 334 334 334 335 335 335 336 335 334 333 333 331 330 329 329 330 332 335 332 332 332 331 332 331 330 331 330 328 330 328 329 328
288 287 285 285 287 284 290 293 295 293 295 296 295 288 289 292 314 322 327 328 326 322 322 322 322 321 322 323 324 324 325 326 326 327 328 328 329 330 330 331 332 332 332 332 333 333 333 332 334 332 333 334 335 336 336 337 336 336 336 338 336 336 335 334 333 332 333 332 334 335 335 335 333 332 332 331 331 330 329 330 330 332 335 333 333 332 333 332 329 330 330 329 327 329 329 328 328
286 286 284 284 284 283 288 292 294 296 295 295 296 285 302 306 315 321 326 327 325 322 321 321 321 321 322 322 323 323 323 325 327 327 328 328 329 330 330 331 331 332 331 331 331 331 331 332 334 332 332 333 334 336 336 335 335 335 336 336 335 334 333 332 333 333 333 332 332 334 333 335 331 332 331 331 331 330 331 331 332 333 335 333 332 330 331 331 329 330 329 331 326 325 326 326 326
283 284 282 283 284 283 286 288 292 294 295 291 294 294 301 307 316 319 324 326 323 321 320 320 321 321 322 323 323 322 323 324 325 327 328 329 329 329 329 332 330 330 332 331 331 331 332 331 330 330 330 332 334 334 335 335 335 335 335 335 336 334 333 333 333 333 332 332 332 333 333 333 333 331 331 331 332 335 331 331 333 334 334 333 331 330 329 329 329 328 327 328 328 326 324 324 324
283 280 282 283 284 287 288 288 289 292 293 293 291 293 301 309 316 319 323 324 322 321 320 320 320 321 321 322 322 323 323 324 325 328 329 329 328 328 329 330 329 330 331 331 331 331 331 330 331 331 331 330 333 335 335 334 334 334 334 334 333 333 333 333 333 333 333 332 332 333 332 333 332 330 332 333 331 331 331 332 333 333 333 331 330 328 327 328 328 327 326 325 326 326 323 323 323
284 283 283 282 283 283 286 290 290 294 289 291 291 291 304 311 314 318 320 322 321 321 321 320 320 321 321 322 322 322 323 324 327 329 329 329 329 328 328 329 330 330 330 330 330 330 330 331 331 331 330 332 334 334 333 332 332 332 331 332 331 332 332 333 333 333 332 333 333 332 331 330 332 333 332 332 332 331 330 330 330 329 329 328 327 325 324 325 324 324 324 323 322 323 324 324 323
287 286 285 284 284 284 286 288 294 293 291 290 290 296 309 311 314 316 318 320 320 319 318 318 319 320 321 322 322 322 323 324 328 329 329 329 329 329 329 329 329 328 328 329 329 329 330 331 332 331 332 333 333 332 330 331 330 330 330 330 330 330 332 332 332 332 332 332 332 332 332 331 331 332 332 331 330 331 327 327 326 326 326 326 324 323 323 323 324 323 322 322 322 321 321 322 323
287 285 284 283 285 284 287 290 292 293 292 288 291 305 309 311 314 315 317 318 317 318 318 318 319 320 321 322 322 322 324 327 328 327 328 328 329 329 329 329 330 328 328 328 328 330 332 333 332 332 332 330 330 330 330 330 329 329 329 330 331 332 331 329 329 329 330 331 332 332 331 329 329 329 329 327 326 325 324 323 323 323 323 323 323 324 324 325 321 321 320 319 321 320 319 321 321
286 284 283 283 283 286 288 289 291 292 292 287 300 304 307 310 313 315 315 316 319 320 320 319 319 319 321 322 322 322 323 324 326 326 327 328 329 329 329 329 330 330 328 328 328 331 332 332 332 332 330 329 329 330 330 329 327 329 331 331 331 330 332 331 331 332 331 328 327 327 327 326 326 325 325 326 324 323 322 322 321 321 321 323 321 321 321 319 319 318 318 317 317 318 319 320 318
285 284 282 281 282 285 283 288 291 291 291 289 303 304 306 311 313 315 317 317 318 321 321 320 321 320 320 321 322 322 322 323 323 325 325 327 328 329 329 329 329 329 329 330 330 331 332 332 332 332 331 329 329 331 331 329 331 331 331 331 331 330 330 332 330 329 326 325 323 323 323 323 323 323 324 324 323 323 322 320 320 320 320 322 321 319 318 317 317 317 317 318 315 315 314 316 319
286 285 283 283 285 286 286 285 290 290 297 302 307 306 306 311 310 312 316 318 318 319 320 320 321 322 323 324 324 323 322 323 323 324 325 326 327 327 328 329 329 329 329 330 331 331 332 333 332 332 330 330 330 333 331 331 331 330 330 331 331 330 330 329 327 325 325 324 322 321 321 321 320 320 320 321 321 319 319 319 319 319 318 318 318 317 316 315 315 315 316 316 315 312 311 312 314
284 285 286 286 286 286 287 287 288 286 287 297 303 292 299 308 311 311 314 315 315 318 317 318 320 321 322 321 322 324 324 325 324 324 325 326 327 328 328 328 328 329 329 331 332 333 333 333 332 331 330 330 331 331 331 330 330 329 328 327 326 326 325 324 322 321 320 318 317 319 320 320 320 319 319 318 319 319 317 318 318 317 316 316 317 315 315 314 314 314 314 314 313 313 311 310 309
282 283 288 288 288 287 288 287 286 281 280 287 298 287 288 302 305 306 311 314 314 316 316 317 319 321 321 321 322 322 323 324 326 326 326 326 326 327 327 327 328 328 330 332 333 333 333 332 332 332 331 330 331 331 331 329 328 328 328 328 327 326 324 324 324 322 319 318 317 317 317 318 318 318 318 317 317 317 316 316 316 316 315 315 317 314 312 312 313 314 315 313 313 312 310 307 307
281 286 288 289 287 287 286 287 284 279 285 286 294 290 292 294 301 306 309 312 312 313 315 317 319 320 320 321 322 323 324 325 325 325 325 326 326 326 326 327 328 329 330 331 332 332 331 331 332 331 331 330 332 332 329 328 327 327 326 327 327 327 325 322 321 319 319 318 316 316 316 316 316 316 315 315 316 316 315 314 314 314 314 315 315 312 311 311 312 313 314 312 313 312 309 307 306
283 287 289 288 289 287 287 287 284 285 285 278 286 297 289 289 298 305 306 306 310 311 313 315 317 320 320 321 322 323 325 326 326 325 325 325 326 326 327 327 329 329 330 330 330 331 331 331 331 331 329 329 330 330 329 329 328 327 327 327 326 327 325 322 321 320 318 317 315 315 315 314 313 314 313 313 313 314 316 313 313 313 312 313 314 311 311 311 310 310 309 309 308 309 310 308 306
288 289 290 289 289 288 288 285 285 285 282 278 282 293 283 282 294 299 303 303 308 310 313 314 317 319 320 320 322 324 325 326 327 326 326 326 327 327 328 329 328 329 330 330 330 330 330 331 330 328 327 328 330 330 329 328 328 327 326 327 327 326 324 321 319 317 316 316 314 314 313 312 312 312 311 311 312 312 312 312 311 311 312 313 313 309 309 309 309 309 309 308 308 306 307 307 306
289 290 289 287 285 286 287 283 283 281 275 281 285 292 289 284 295 298 299 300 309 312 313 314 317 320 321 321 322 323 324 325 325 326 326 326 327 327 328 327 328 329 329 329 329 329 329 328 327 327 327 328 330 329 329 328 328 328 327 327 327 325 322 319 316 314 314 313 312 312 311 311 311 310 310 310 310 310 310 313 310 310 311 313 310 308 308 308 308 308 307 307 306 306 305 305 305
289 286 285 284 283 282 281 281 281 276 276 282 284 291 292 283 290 301 305 309 311 313 311 313 316 318 319 320 322 323 324 324 325 325 324 325 325 327 328 326 326 327 328 328 328 328 328 327 327 326 326 327 329 329 328 328 328 327 328 328 325 323 321 318 315 313 313 312 312 311 310 310 309 309 308 308 307 308 309 308 310 309 310 308 308 308 308 308 308 307 306 306 304 304 304 304 302
288 285 285 280 275 277 274 279 273 278 277 280 283 290 287 288 294 303 305 307 311 315 315 315 317 318 319 320 321 323 323 324 324 324 324 324 324 324 325 325 326 326 326 327 326 326 326 326 326 325 325 326 327 327 327 327 327 327 327 325 324 323 320 317 314 312 312 311 310 309 309 307 307 307 306 306 306 307 307 306 307 307 307 308 308 307 307 307 306 306 305 303 303 302 301 301 299
286 284 282 280 274 274 270 273 274 275 279 283 283 289 285 287 292 306 306 308 312 315 316 317 319 319 319 320 321 322 322 323 324 324 324 324 324 325 325 325 325 325 325 325 324 324 324 323 323 323 322 323 323 323 323 323 323 322 321 320 320 320 317 315 314 312 312 311 310 309 308 307 306 306 305 305 305 306 306 306 306 306 306 307 308 306 306 306 306 305 303 302 301 301 300 299 299
287 285 285 280 280 276 272 274 274 275 278 281 286 286 279 285 287 306 308 310 311 313 315 317 319 320 320 321 322 322 322 322 323 324 324 324 324 325 324 325 325 324 323 322 322 322 321 320 320 318 317 318 319 318 319 318 318 317 317 317 318 317 315 314 313 313 311 310 309 309 308 307 306 306 305 305 305 304 305 306 306 305 305 305 305 305 305 304 304 304 303 302 301 300 299 299 298
286 285 285 280 283 280 278 277 277 277 279 279 282 280 282 288 298 302 310 310 309 314 314 316 317 319 320 319 320 320 321 322 323 323 324 324 324 324 324 324 323 322 321 320 320 320 319 318 317 317 316 316 317 316 316 316 316 316 316 316 316 316 316 314 313 313 311 311 310 309 308 307 307 306 305 304 303 303 303 303 303 303 304 304 304 304 303 303 303 302 301 301 300 302 298 297 297
284 286 282 286 287 286 278 276 282 277 277 277 276 286 291 292 297 302 307 308 310 312 312 315 316 318 319 318 319 320 321 321 322 323 323 323 324 324 324 323 322 320 319 319 318 318 317 316 315 314 315 315 315 315 315 316 316 315 315 315 315 314 313 312 312 311 311 311 311 310 308 307 306 305 304 304 302 303 302 302 302 302 302 303 303 303 302 302 302 301 300 299 299 299 299 297 297
285 282 285 288 290 287 282 275 275 275 274 275 281 284 285 286 283 297 305 306 309 310 311 313 315 317 317 318 318 319 320 321 322 323 323 323 323 323 323 322 321 319 318 317 317 316 316 315 314 313 314 313 314 315 315 315 314 314 313 314 314 314 313 312 312 312 312 311 310 309 307 305 303 303 303 303 301 301 301 304 300 301 301 301 302 302 301 301 301 300 300 299 299 299 298 298 298
289 287 289 288 278 279 278 278 274 273 274 272 279 284 285 287 290 298 301 305 307 309 311 312 313 316 317 318 319 320 321 321 321 322 322 322 322 322 322 320 320 319 317 316 315 314 314 314 314 314 313 313 314 314 314 314 314 314 313 313 313 312 312 312 312 312 312 310 308 306 304 303 302 302 302 300 299 299 299 299 299 299 300 300 300 301 301 300 300 299 300 298 298 298 297 296 297
290 290 290 288 285 282 279 278 277 279 272 272 277 284 282 290 297 301 302 305 308 309 309 310 313 316 317 317 318 319 320 320 321 321 321 322 322 322 321 319 317 316 315 314 314 313 313 313 313 313 313 313 313 313 314 313 313 313 313 313 313 313 313 312 312 312 310 308 305 303 302 300 300 300 299 299 298 298 299 298 298 298 298 298 299 299 300 299 299 298 298 298 297 297 296 295 295
284 284 282 286 287 286 286 284 282 280 271 269 273 277 279 285 298 303 304 306 308 309 309 311 314 316 318 318 319 319 320 320 321 320 321 321 321 321 320 318 317 316 315 314 313 312 312 312 312 312 311 311 311 312 312 312 312 312 312 312 312 312 311 312 311 310 307 305 304 303 300 300 299 298 298 297 297 297 297 298 297 298 297 297 298 298 299 299 298 297 297 297 297 296 296 295 296
284 283 280 283 285 282 279 278 282 281 282 275 276 275 279 287 302 306 306 308 309 310 310 311 314 316 318 319 319 320 320 320 321 320 320 320 320 319 318 317 315 314 313 312 312 312 311 311 310 310 309 309 309 310 310 311 311 311 311 310 310 310 310 310 309 307 305 304 302 301 300 298 297 297 297 296 296 296 296 296 296 296 296 296 297 297 297 298 298 297 297 298 296 295 295 294 294
Wind_Speed
9 9 8 5 1 0 1 5 2 3 2 2 3 4 2 1 0 6 6 7 6 3 2 4 4 5 0 4 5 2 1 5 3 6 4 1 4 7 10 12 12 11 11 10 9 10 11 13 16 17 16 16 16 15 16 17 17 16 16 17 17 16 16 16 15 14 14 13 13 13 13 13 12 13 12 12 12 12 12 12 12 11 11 11 10 10 10 9 8 8 8 8 9 9 10 10 10
6 8 7 4 2 1 1 1 3 2 4 2 5 1 4 0 4 4 7 2 1 3 3 3 4 2 2 3 3 2 2 3 1 2 1 2 8 8 11 13 13 13 11 8 7 9 9 11 16 16 17 17 16 15 16 16 17 16 17 17 16 16 16 15 15 14 14 13 13 13 13 12 12 12 12 11 11 11 10 11 11 11 11 10 9 9 9 9 8 8 8 8 9 9 10 10 10
5 7 8 6 3 4 1 4 3 1 1 4 6 5 3 6 2 5 6 3 2 3 3 2 2 2 4 5 1 2 4 4 6 3 3 6 10 5 11 12 12 13 13 8 8 8 8 10 15 16 17 16 16 16 16 16 16 16 17 16 16 16 15 14 14 14 13 13 13 13 13 13 12 12 11 11 11 10 10 9 10 11 10 9 8 8 8 8 8 7 7 8 8 9 9 10 10
4 1 2 3 2 4 1 3 4 5 1 5 6 4 2 2 5 6 8 5 4 1 1 2 1 2 2 3 3 2 0 1 2 6 6 7 1 8 9 11 10 10 9 8 8 8 7 12 15 16 17 17 16 16 16 16 16 16 16 15 15 15 14 13 13 13 13 13 13 12 12 12 12 11 11 11 11 10 10 9 9 10 9 9 7 7 7 7 7 7 6 7 8 8 9 10 10
4 3 2 4 2 1 1 0 2 3 2 3 5 3 4 5 7 7 9 7 3 4 1 1 0 2 2 1 1 0 1 4 3 2 4 3 8 7 10 11 10 10 10 9 9 8 9 17 15 16 16 17 16 16 16 16 15 15 15 15 15 14 13 13 13 13 14 13 12 12 12 11 11 11 11 11 10 9 9 8 8 9 9 9 7 6 7 6 6 6 6 6 7 8 9 9 9
2 4 2 1 0 2 5 1 1 3 7 4 3 4 4 6 7 9 12 11 5 6 9 4 3 2 0 1 1 1 1 0 5 3 5 6 11 10 10 10 10 10 10 9 8 7 9 16 15 15 15 17 17 17 16 15 15 15 15 15 15 14 13 13 13 13 13 13 12 12 11 11 11 11 11 10 9 9 9 8 8 8 8 7 7 6 6 6 5 5 5 6 6 7 8 8 8
2 4 4 3 2 3 5 4 6 6 8 6 4 8 7 8 8 7 11 11 6 2 1 4 2 2 1 1 2 2 5 8 6 4 5 12 13 11 10 9 11 11 10 9 7 8 10 14 15 15 15 16 17 17 16 16 15 15 15 15 14 14 13 13 13 13 13 13 12 12 12 11 11 11 10 10 9 9 8 8 8 8 7 6 6 6 5 5 5 6 6 6 6 6 6 7 7
1 0 1 1 1 1 1 3 5 5 5 7 4 6 8 9 9 4 11 2 8 2 0 1 3 3 1 2 2 4 9 4 11 14 15 14 13 11 10 10 13 12 11 9 8 8 14 13 14 15 16 16 17 16 16 16 15 15 15 14 14 13 13 13 13 13 12 13 13 12 11 11 11 10 9 9 8 8 8 8 7 7 6 7 7 6 5 5 5 6 6 6 6 6 6 6 6
3 4 0 3 2 2 1 4 5 2 4 2 6 7 9 9 9 6 11 9 9 1 4 3 3 1 2 3 3 2 6 10 15 17 15 15 14 12 9 11 14 11 10 9 9 8 9 13 13 15 17 16 17 17 16 16 15 15 14 14 14 12 13 13 13 13 12 11 11 11 11 11 10 10 9 9 8 7 7 6 6 7 7 6 6 5 5 5 5 5 6 6 7 7 6 6 6
1 1 1 2 3 5 2 4 1 6 6 5 7 7 9 7 7 7 10 14 14 2 6 6 2 4 3 4 1 3 5 11 17 15 12 13 13 12 11 10 14 15 11 10 9 10 9 15 13 13 14 16 16 15 15 14 13 13 13 13 13 11 13 13 11 12 11 11 10 10 10 10 9 9 8 8 7 7 6 6 5 6 6 6 5 5 5 5 5 5 5 6 6 6 6 6 5
0 4 2 1 1 4 6 7 6 3 3 2 3 7 11 10 8 11 10 13 13 5 0 4 1 3 4 2 3 2 7 12 18 15 10 11 12 12 11 10 11 12 13 11 11 10 10 10 17 14 14 15 14 12 12 12 12 10 11 11 11 13 13 12 11 12 11 11 11 10 10 9 9 8 7 6 5 4 4 4 4 4 3 5 5 5 5 5 5 5 5 5 6 5 5 5 5
1 2 1 4 6 7 6 7 5 6 3 2 3 6 4 9 8 6 16 14 9 2 5 8 4 8 4 2 2 5 5 5 11 13 12 11 10 10 11 9 11 9 12 13 10 10 10 10 10 15 16 14 14 13 12 13 13 11 11 12 11 12 12 10 11 11 10 10 9 9 9 8 8 7 6 6 5 4 3 3 3 3 3 3 4 5 4 4 5 5 5 5 5 5 6 6 6
3 2 4 2 5 3 4 5 4 4 1 3 6 4 6 7 9 14 11 13 11 7 8 11 9 6 5 3 4 5 6 4 7 12 12 11 10 9 8 9 10 11 10 10 11 11 10 9 9 9 12 17 16 14 12 12 12 11 11 11 12 13 12 12 12 11 10 9 9 9 8 8 7 7 6 5 5 4 3 3 3 3 3 3 3 4 4 4 4 4 5 5 5 6 6 6 7
4 6 8 6 0 3 5 4 1 3 4 4 3 5 4 2 5 5 5 10 14 5 5 11 8 9 7 8 6 6 6 7 10 10 10 10 9 10 10 9 10 10 8 9 10 10 10 8 8 8 10 9 9 12 13 13 12 12 10 11 11 11 11 11 10 10 9 9 9 8 8 7 7 7 6 5 5 4 3 3 3 3 2 2 2 2 2 3 3 4 4 5 5 5 6 6 7
4 2 3 2 3 3 3 5 6 5 8 3 4 4 2 5 6 7 7 9 11 1 1 2 5 11 7 11 6 10 10 12 11 11 11 11 11 11 11 9 9 8 7 6 7 10 9 9 8 7 8 7 8 7 7 10 14 13 12 12 12 11 11 11 11 9 9 9 8 8 7 7 6 6 5 5 5 4 3 3 2 2 2 1 0 1 1 2 2 3 3 4 5 5 6 7 7
4 3 2 4 5 8 4 5 2 4 6 3 6 3 3 11 4 5 7 7 0 1 5 3 2 0 7 12 12 15 16 14 12 13 13 14 12 11 10 9 8 8 6 5 5 5 8 8 7 7 7 7 7 7 7 7 13 14 13 13 12 12 12 11 10 9 9 8 8 7 6 4 4 3 5 3 4 3 3 2 2 2 1 1 0 1 1 1 2 2 2 3 4 4 6 7 8
1 1 2 2 6 6 4 4 7 7 3 6 7 4 3 5 6 2 3 3 9 1 3 1 2 2 10 3 15 21 17 15 14 15 15 13 10 9 7 7 7 7 5 4 4 4 4 6 7 6 5 6 7 7 6 7 9 14 12 13 13 12 11 10 9 9 7 6 6 6 5 2 1 1 1 0 2 1 2 1 2 2 1 1 1 1 2 2 2 3 3 4 5 5 6 6 8
3 5 5 7 4 9 5 8 8 4 6 3 5 6 2 6 6 2 2 7 5 5 6 2 9 8 10 12 19 19 18 17 15 16 11 12 9 8 8 7 7 7 7 6 4 4 5 5 6 5 5 5 5 5 5 5 6 9 6 6 6 8 9 9 6 3 5 2 6 4 2 2 1 0 0 2 1 0 1 2 1 1 1 1 1 3 4 4 5 6 6 6 7 7 8 4 4
6 3 6 14 8 5 9 7 8 4 4 6 7 0 2 6 1 3 1 0 2 6 5 6 11 13 15 16 18 17 17 15 14 15 14 13 10 11 9 7 7 8 7 6 5 5 4 6 5 5 5 4 5 5 4 4 5 5 5 5 5 7 6 6 3 3 3 2 2 2 2 1 1 0 1 2 2 2 1 2 1 1 1 2 2 3 4 5 6 6 7 7 6 6 4 4 3
6 4 10 9 5 4 9 4 7 6 5 7 7 3 2 7 2 3 2 3 1 9 8 7 12 15 14 15 16 15 14 13 11 12 11 11 9 10 10 10 9 9 8 6 6 4 6 6 6 5 6 5 4 4 3 3 4 4 4 4 4 5 5 5 3 3 3 2 2 2 2 1 0 1 4 4 0 1 0 2 0 0 1 2 3 2 4 5 6 6 6 6 4 3 3 3 4
2 4 6 5 6 8 8 6 7 9 6 4 2 2 5 6 2 3 0 1 2 4 5 11 15 18 18 18 19 17 16 15 13 11 8 6 3 1 5 8 9 8 6 6 5 6 6 7 7 7 6 5 5 5 4 3 3 3 3 4 4 4 4 5 4 3 3 2 2 2 1 1 1 1 2 3 1 1 0 1 1 2 1 2 2 3 2 3 3 4 3 4 3 3 4 4 3
1 12 4 4 4 5 5 10 10 7 5 4 2 3 4 3 3 2 2 3 6 2 1 9 20 21 21 20 18 16 17 18 17 16 13 10 6 7 4 3 3 4 6 7 7 7 7 7 7 7 7 6 6 5 5 5 5 4 4 4 4 3 4 4 3 3 2 2 2 2 1 1 2 2 2 2 1 0 1 1 1 1 2 2 1 2 3 3 3 3 3 3 4 2 3 3 3
8 3 6 5 5 7 4 5 7 8 6 6 4 4 4 1 0 1 2 2 3 6 6 14 17 19 19 18 18 16 14 13 13 14 16 16 14 8 7 6 7 7 6 5 5 5 7 8 8 8 9 8 8 6 6 5 5 4 3 4 4 4 4 4 4 3 3 3 3 2 2 2 3 3 3 2 2 1 2 2 1 0 2 3 2 2 3 3 3 3 3 3 3 3 3 3 3
5 5 1 7 5 8 4 5 8 7 9 8 5 1 3 1 5 0 2 4 1 5 12 14 14 15 17 17 16 17 15 17 17 18 20 20 20 18 14 13 10 7 7 8 6 7 9 10 10 9 9 9 9 8 8 6 5 4 5 7 5 6 5 4 3 4 4 4 3 3 3 3 4 4 3 3 3 1 2 2 2 1 2 3 2 2 3 4 4 3 3 3 3 2 2 2 2
10 9 4 2 4 7 7 5 5 6 7 4 3 6 7 5 3 1 2 2 7 9 11 12 13 14 13 15 16 15 16 15 17 19 14 12 19 18 16 13 11 10 11 12 10 10 11 11 12 12 10 10 9 9 7 6 6 6 6 5 5 6 4 4 4 3 3 3 3 3 3 4 4 3 3 3 2 2 1 1 2 2 2 2 2 2 2 3 3 2 2 3 2 2 2 3 2
6 7 2 3 5 4 6 6 11 9 3 5 4 7 8 5 6 2 1 3 6 11 11 13 13 13 13 13 15 17 17 17 15 11 12 11 9 14 14 13 13 14 13 13 12 12 10 11 13 14 12 11 10 8 6 6 7 7 6 6 5 6 4 4 3 2 2 3 4 4 4 4 4 4 3 2 2 1 1 0 0 1 1 2 1 3 2 2 3 3 3 3 3 3 2 3 2
3 7 7 6 8 5 4 6 6 6 5 6 7 6 7 3 7 4 0 7 10 12 12 10 14 13 11 11 10 11 15 15 15 11 10 9 10 8 10 9 11 12 11 12 12 10 9 9 10 10 10 11 9 9 7 7 7 6 6 4 4 4 4 4 3 3 3 3 3 2 3 3 4 3 3 2 1 1 1 1 1 0 0 1 1 3 1 2 2 3 3 2 2 2 2 2 1
6 3 5 11 10 8 5 5 8 1 5 8 7 8 7 0 1 5 9 8 11 15 14 11 10 10 11 11 11 9 10 12 11 14 17 13 9 8 9 9 11 9 11 12 10 7 6 8 9 8 9 10 9 9 8 7 7 6 4 4 4 3 3 4 3 3 4 3 2 3 3 3 3 3 3 2 2 2 2 2 1 1 0 1 2 3 2 2 2 2 2 2 2 2 3 4 2
2 3 4 4 6 11 12 11 6 3 6 5 9 5 5 1 5 1 11 11 11 13 12 11 10 8 8 8 8 9 10 9 9 8 10 12 11 10 12 9 11 10 7 10 9 7 6 9 9 8 9 10 11 10 8 7 6 5 5 5 4 4 4 4 4 4 3 3 3 3 3 3 3 4 3 3 2 2 1 1 2 1 1 1 1 1 1 0 0 1 1 1 0 1 2 3 2
1 1 1 2 4 8 14 6 5 5 4 5 6 6 6 4 4 5 12 12 12 12 11 12 9 7 7 8 8 8 7 8 9 9 10 10 11 11 11 9 10 9 8 7 8 9 8 6 5 5 8 10 10 8 7 5 5 6 5 5 5 5 4 5 4 3 4 4 3 3 3 3 3 3 3 3 2 2 1 2 2 2 3 2 2 1 2 2 3 4 3 2 3 2 3 3 3
4 3 4 6 4 9 4 7 7 9 5 6 6 8 6 6 2 8 9 12 15 15 12 13 9 8 8 9 9 9 8 4 5 7 8 7 6 7 9 7 8 5 5 8 10 10 7 4 2 3 5 6 8 7 7 6 6 6 6 6 5 6 5 5 5 4 4 4 4 4 3 3 3 3 2 3 2 2 2 1 2 3 3 2 3 2 3 3 4 3 2 4 3 4 3 2 3
2 5 10 3 10 1 3 6 10 13 3 8 7 8 8 5 2 7 9 10 11 14 12 10 9 7 8 10 11 10 7 4 4 5 6 6 6 8 9 9 7 5 6 5 5 4 3 1 0 1 2 3 5 7 6 7 7 7 6 6 6 6 6 5 5 4 4 4 4 3 2 3 2 2 2 2 3 2 2 2 2 2 3 3 4 4 4 5 2 3 3 3 4 5 4 5 3
2 9 4 9 4 4 2 6 8 13 6 2 12 4 1 1 4 5 8 11 9 11 12 10 11 11 8 9 7 7 6 6 6 6 6 7 6 6 7 8 7 5 3 3 3 3 2 1 0 1 1 3 3 5 7 7 7 7 7 6 6 6 6 5 5 4 4 4 4 3 2 2 2 2 2 2 3 2 2 3 3 3 3 5 5 4 5 4 3 3 5 5 3 2 4 4 5
7 2 5 3 7 4 7 2 4 10 11 5 7 6 5 3 10 8 9 10 10 11 12 11 11 10 10 9 8 8 7 8 9 7 7 7 7 6 5 5 4 4 4 4 3 4 3 2 1 2 2 2 3 5 6 7 6 7 6 6 6 6 6 5 5 5 4 3 3 3 2 2 2 2 2 2 3 3 3 3 4 4 4 5 5 5 4 3 4 4 5 5 4 4 5 5 6
8 4 6 2 1 10 9 6 4 8 9 10 6 6 5 3 8 10 13 11 11 13 12 13 12 12 11 9 8 9 9 9 9 6 6 7 6 5 5 5 4 4 5 5 5 5 5 4 3 3 3 2 3 5 6 7 7 7 6 6 6 6 5 5 5 5 4 3 3 3 3 3 2 2 2 3 4 4 5 6 6 5 5 6 6 6 5 5 5 6 5 4 3 3 3 4 4
5 6 6 4 5 6 10 8 4 12 6 9 9 9 4 7 9 9 8 10 10 9 8 8 9 10 11 9 8 9 8 9 6 5 7 6 5 6 6 5 5 5 6 6 6 6 5 5 5 5 3 3 3 5 5 6 6 6 7 6 7 5 5 5 4 4 3 4 3 3 4 4 3 3 3 4 5 6 6 7 7 6 6 6 7 7 5 6 6 5 5 2 3 4 6 6 6
8 4 6 7 5 3 4 4 7 7 6 9 8 6 10 12 14 13 11 10 9 9 11 9 10 11 10 8 9 9 9 9 7 6 6 7 6 6 6 5 6 6 6 7 7 6 6 6 7 6 4 4 5 6 4 6 6 6 4 6 6 4 5 5 5 4 5 4 4 5 5 4 4 5 6 6 7 7 7 6 7 6 6 7 6 4 3 5 5 3 1 2 3 6 8 8 8
0 2 4 6 6 6 4 5 4 6 7 4 6 9 9 13 11 11 10 11 15 15 11 10 12 10 9 10 10 10 9 7 8 7 7 6 7 7 6 6 7 9 6 7 8 7 7 8 8 6 5 4 4 5 5 4 3 4 5 4 6 5 5 5 5 5 4 5 5 6 6 6 6 6 6 6 7 7 7 7 6 6 6 6 4 4 6 6 5 4 2 2 4 6 6 8 8
2 2 2 1 4 3 6 4 4 3 4 2 6 9 8 10 9 9 12 14 11 14 12 16 15 13 10 10 10 11 11 10 8 8 8 8 9 9 7 6 6 7 8 8 7 8 9 8 7 7 6 6 4 4 5 5 3 3 5 5 5 6 5 4 6 6 6 8 8 7 6 6 6 6 5 6 7 6 7 7 6 6 5 3 6 8 6 5 4 4 4 2 2 4 5 7 9
6 3 3 5 3 6 5 5 0 2 4 6 5 8 3 5 5 6 4 5 4 10 7 7 9 14 15 15 13 13 13 15 12 11 10 9 10 9 9 8 7 7 6 7 7 8 8 7 7 7 7 5 5 5 3 4 6 7 7 7 6 6 5 6 8 7 8 9 9 7 6 6 6 6 6 7 7 7 7 6 6 6 6 6 6 5 5 4 3 4 4 5 2 5 5 6 7
6 5 3 3 2 1 3 4 1 2 4 7 10 7 2 6 8 5 5 5 6 8 6 6 7 5 4 5 7 10 14 15 13 11 11 11 11 11 11 9 8 8 7 8 8 7 6 8 8 7 6 6 5 5 6 7 8 8 8 9 8 9 7 7 8 7 7 7 7 7 6 5 6 6 6 7 7 7 6 5 6 6 7 5 4 5 5 3 3 3 4 6 7 3 5 4 6
6 4 6 4 2 4 4 3 2 2 1 2 12 4 4 4 11 6 6 6 7 8 8 10 10 8 9 11 10 10 10 10 13 14 13 11 10 11 11 10 10 8 8 7 7 7 6 6 7 6 4 5 6 6 7 7 8 10 8 9 8 7 8 6 7 7 6 7 6 3 6 6 6 7 6 6 6 6 7 6 6 6 5 5 5 5 3 4 5 6 6 6 8 6 5 6 5
5 6 9 5 4 2 1 4 1 3 5 4 1 9 3 1 6 4 4 8 8 8 10 10 10 9 10 11 11 12 12 12 11 10 8 10 12 11 11 11 10 8 6 6 6 6 6 5 6 5 5 4 5 6 7 6 8 6 8 8 8 8 9 6 6 6 7 6 5 6 6 6 6 7 6 5 6 6 6 6 6 6 6 5 4 5 5 4 5 6 6 8 7 6 6 8 6
6 3 11 8 4 4 2 1 2 2 2 4 2 4 6 4 7 4 7 11 12 11 12 13 12 12 12 11 12 11 12 12 12 11 11 12 12 13 14 11 9 8 6 6 6 5 6 6 6 5 3 2 2 5 6 7 6 7 8 8 7 8 9 9 8 8 7 6 7 6 6 6 6 5 5 5 6 6 6 7 6 6 7 5 5 5 5 4 6 7 8 8 8 7 7 7 6
3 4 10 8 9 5 3 2 3 0 2 5 3 4 3 4 3 6 5 8 13 12 13 15 15 14 13 12 12 11 12 12 13 11 13 11 11 11 10 10 8 8 6 6 6 6 5 5 6 5 6 6 5 4 4 6 6 8 9 8 8 7 10 9 7 6 7 6 8 5 6 5 5 5 5 6 6 6 7 7 6 6 6 5 5 5 6 7 8 8 9 9 8 8 7 6 8
3 7 5 5 4 4 6 4 2 1 1 7 6 6 4 1 2 8 3 3 10 13 17 17 13 14 14 14 14 12 11 9 11 12 12 10 9 8 8 7 8 7 6 6 6 6 6 6 7 8 8 8 7 9 5 3 4 5 8 8 11 9 9 8 7 7 6 5 6 6 5 5 4 5 5 5 6 7 7 6 6 6 5 5 5 6 7 9 8 9 8 8 8 9 7 8 9
3 4 4 1 3 1 1 2 2 3 4 12 7 8 8 3 6 11 10 9 15 16 10 7 10 13 15 14 15 12 12 10 10 10 9 9 8 8 8 9 8 8 7 7 6 7 6 6 8 8 8 6 6 5 8 8 4 4 6 9 11 12 11 10 8 6 5 7 7 5 6 5 4 5 5 5 6 6 6 6 6 5 5 5 7 8 8 8 8 8 8 10 10 10 8 9 10
5 3 3 3 2 2 3 1 2 2 9 7 5 9 9 8 3 8 10 18 23 18 19 19 20 18 18 16 14 12 12 10 10 9 8 9 9 9 9 9 9 9 8 8 7 7 7 7 7 7 6 4 4 6 6 8 6 7 7 9 10 11 11 9 10 8 5 7 6 7 5 5 5 5 5 6 6 6 6 6 5 6 7 7 7 7 8 8 8 8 9 9 9 10 10 10 9
7 5 7 7 2 3 2 1 2 11 10 1 7 9 1 10 5 15 18 18 13 18 19 21 21 19 17 15 14 11 12 11 10 9 9 10 10 10 10 9 9 9 8 8 8 7 7 8 9 8 7 6 5 7 7 5 5 6 7 7 7 8 9 9 8 8 7 7 7 6 6 6 5 6 5 7 6 6 6 7 7 7 6 6 7 8 8 9 9 9 10 10 11 10 9 10 9
8 9 8 9 5 5 6 6 2 5 5 3 3 7 5 2 3 18 24 23 23 22 17 12 18 20 18 16 13 10 11 11 9 9 10 11 10 10 11 12 10 9 8 9 9 8 7 8 8 8 7 5 6 6 7 7 5 5 5 6 7 8 9 9 8 8 7 6 6 6 6 6 6 6 6 6 5 6 6 6 6 6 6 7 8 8 9 9 10 9 10 10 10 8 9 10 10
9 3 9 7 5 5 7 5 9 6 7 1 0 6 4 5 5 17 24 26 18 9 3 6 7 7 10 10 10 10 10 11 9 9 9 11 11 10 10 10 9 8 10 9 8 9 9 9 8 9 7 6 7 7 7 8 6 7 6 7 8 8 9 8 7 6 7 7 5 7 6 6 7 6 6 5 6 7 6 6 6 7 7 8 8 9 9 9 9 10 9 10 9 8 9 10 9
3 4 6 6 12 6 3 5 4 3 2 1 1 4 5 6 1 6 16 15 5 7 7 10 11 10 11 11 12 12 11 11 10 10 10 10 10 10 9 9 9 9 10 9 10 9 9 9 8 8 8 8 7 7 7 8 7 7 8 9 9 9 7 7 7 6 6 6 6 7 7 6 6 7 5 6 6 6 7 7 7 8 8 9 9 9 9 9 9 10 9 9 9 6 9 10 8
6 8 10 10 4 2 2 1 0 2 3 6 2 1 1 5 5 5 9 10 8 9 8 11 12 13 13 11 11 12 11 11 11 10 9 12 9 9 9 9 9 10 9 10 9 9 11 11 10 9 8 7 7 7 8 8 8 9 8 9 9 9 9 9 8 8 7 6 6 6 7 7 7 7 6 5 6 6 6 7 8 8 9 8 9 9 9 9 9 9 9 9 9 8 9 9 8
5 8 7 3 3 4 3 4 1 1 4 5 2 6 1 2 4 1 9 13 10 12 12 12 13 12 13 11 12 13 12 11 11 9 9 11 11 10 10 9 10 10 10 10 10 7 8 10 10 11 9 10 7 8 8 8 9 9 9 9 8 9 9 9 8 8 7 7 7 7 7 8 7 6 6 5 6 7 7 7 8 8 8 9 8 8 8 9 9 8 8 8 7 8 9 7 7
10 10 4 9 5 7 3 2 1 1 2 2 1 1 2 7 5 3 9 14 13 12 11 12 14 15 13 13 12 12 12 10 10 10 11 10 12 11 10 10 10 10 10 10 9 9 8 8 8 10 9 8 8 7 7 7 7 7 7 8 9 8 8 8 7 7 6 7 8 8 9 8 7 6 7 6 7 7 7 7 8 8 8 9 8 7 7 8 8 8 8 8 7 8 8 7 5
2 6 8 5 3 2 2 6 4 5 3 1 3 1 4 5 8 16 17 18 17 16 14 16 17 18 15 14 13 14 14 12 11 11 12 10 11 12 11 12 12 11 11 11 11 9 10 9 9 8 8 8 9 9 8 9 7 8 8 8 7 7 7 8 7 7 7 8 9 10 9 9 7 6 6 6 7 7 7 8 7 8 8 8 8 6 7 7 8 8 8 8 7 8 8 7 5
6 5 6 6 3 2 4 1 3 3 3 3 3 1 4 7 7 16 20 19 19 20 20 17 16 17 16 15 15 13 13 13 11 10 12 11 12 12 11 10 10 9 9 10 10 11 9 8 9 9 11 9 9 8 8 7 7 8 8 8 7 7 7 6 7 7 8 8 9 8 8 7 6 6 6 7 7 7 7 8 8 8 8 7 7 7 6 7 8 8 8 7 6 7 7 5 5
7 6 6 7 10 4 7 8 2 2 1 3 3 4 6 9 5 14 16 20 21 22 20 18 18 19 16 15 15 14 12 14 14 10 11 12 12 12 11 11 10 10 9 10 9 10 9 9 8 8 8 7 9 7 8 8 7 7 8 7 7 6 6 6 8 8 9 9 9 9 8 7 8 4 6 8 8 6 6 8 8 8 7 7 7 7 6 7 9 8 7 6 6 6 6 5 4
Wind_Direction
334 327 317 318 6 98 64 358 28 312 40 297 312 327 259 65 269 328 325 352 9 281 343 333 40 39 202 216 196 195 270 139 193 133 215 255 111 99 115 115 116 122 127 133 137 136 138 139 142 140 140 138 136 132 128 125 121 120 119 119 118 116 116 116 116 116 116 117 117 117 116 116 115 115 114 113 110 110 111 112 112 110 106 103 99 96 94 91 88 86 83 79 79 79 80 78 82
324 325 317 333 322 46 319 100 102 343 40 12 256 334 267 54 350 296 298 353 252 277 311 71 72 89 48 34 91 75 21 65 179 155 78 139 97 107 126 125 130 129 129 129 128 127 129 139 138 136 139 137 135 132 129 125 122 121 121 120 118 116 115 116 117 116 117 116 117 117 116 115 114 112 112 110 107 108 109 115 116 111 104 97 94 96 94 90 81 76 75 77 78 82 83 84 85
322 349 333 6 31 66 78 37 310 48 58 289 273 221 317 326 273 271 260 240 256 222 270 357 18 34 329 344 35 98 224 92 78 75 82 128 115 150 134 129 133 132 128 128 125 125 129 134 135 139 138 135 135 131 128 126 124 123 122 121 118 117 115 116 117 117 116 116 116 116 115 114 114 112 108 104 102 103 103 106 112 109 104 97 92 91 90 87 87 78 72 75 78 83 85 84 85
315 55 23 33 327 25 61 28 97 129 145 227 294 277 234 246 276 262 263 248 239 231 358 341 343 183 138 269 271 23 217 8 42 133 128 164 78 133 122 123 124 118 114 117 122 128 128 132 136 137 135 136 134 131 129 127 125 126 123 121 119 117 117 116 117 117 116 116 116 115 115 115 114 113 111 107 105 107 111 118 117 108 101 96 90 77 74 72 71 71 72 75 79 82 84 84 84
21 327 85 87 102 3 98 173 146 107 201 219 258 262 260 254 267 280 279 273 198 242 311 245 104 326 147 122 177 145 261 116 106 83 95 61 107 119 122 123 120 114 110 112 116 121 131 137 133 133 135 137 134 131 130 128 128 127 124 123 121 119 120 120 121 120 119 117 116 116 116 116 115 113 112 111 113 112 116 119 105 98 96 89 82 73 65 63 60 57 60 65 68 77 79 80 80
55 36 356 90 353 182 50 74 299 193 216 160 256 261 251 264 275 277 284 292 263 191 225 216 193 194 358 313 168 97 162 2 161 95 115 131 121 125 123 121 115 109 109 109 117 124 134 137 133 133 136 137 135 133 130 130 131 130 127 125 125 123 123 124 123 121 120 120 119 119 119 119 119 117 117 115 116 119 118 110 105 104 103 102 99 93 85 75 69 62 58 56 61 67 72 73 78
348 35 354 25 13 55 180 163 216 213 255 165 249 268 265 279 274 295 293 314 298 136 197 189 109 67 61 270 41 59 348 135 130 135 111 127 121 121 121 116 111 107 110 116 118 125 134 131 133 135 135 137 137 135 133 133 134 134 132 130 128 128 127 126 124 122 122 122 122 123 123 122 121 121 119 118 119 119 118 116 110 105 107 118 109 88 74 74 72 67 59 59 65 66 72 74 73
98 115 290 122 219 53 154 189 222 163 268 182 232 264 271 273 281 285 284 290 292 20 297 231 155 138 233 328 178 4 21 30 103 107 118 122 121 119 118 119 113 113 119 119 124 131 131 128 135 137 139 140 140 137 137 137 138 139 137 134 132 131 129 127 125 123 123 125 127 126 125 125 124 122 118 120 118 119 121 124 125 116 105 91 86 76 69 68 68 67 62 59 66 72 71 70 70
346 86 316 73 194 31 74 190 225 251 286 281 268 253 273 268 272 274 281 266 286 239 179 210 154 209 241 47 38 342 44 82 100 112 120 122 123 125 126 131 124 125 127 131 131 127 126 133 136 138 141 142 142 141 140 141 141 143 141 136 133 130 130 128 126 125 125 126 128 129 127 127 127 126 125 125 125 129 130 124 117 106 97 96 92 89 78 68 69 66 61 57 59 63 66 64 63
19 90 274 168 120 223 239 280 166 229 216 228 234 252 262 272 273 254 262 287 260 272 217 181 146 172 144 80 87 13 100 111 109 106 120 120 122 125 129 133 131 132 135 132 127 128 134 138 135 138 141 144 143 142 142 142 143 144 141 135 131 130 129 127 124 126 127 129 128 128 129 128 128 128 131 133 136 139 137 130 122 113 98 97 98 90 75 63 57 57 57 55 54 51 50 44 47
223 12 147 122 162 223 222 256 233 284 249 285 293 260 256 271 269 273 264 256 278 258 120 144 83 118 83 40 46 1 108 125 119 123 125 119 122 128 126 129 130 133 132 131 134 138 136 134 139 139 143 142 140 137 138 142 144 141 135 131 131 132 131 128 129 129 128 129 129 128 125 124 128 132 129 126 124 131 143 148 159 140 116 101 93 85 73 62 56 50 45 43 42 41 32 30 23
114 157 131 202 204 195 220 231 223 245 284 348 285 259 244 244 272 281 271 274 284 298 197 171 211 139 52 93 87 99 108 101 118 123 121 119 117 119 123 129 128 125 129 134 137 134 135 138 139 145 140 136 136 137 141 144 142 133 132 133 131 133 131 131 130 129 132 133 129 125 123 122 123 120 116 113 116 117 125 127 129 130 132 108 98 85 67 55 54 48 37 29 29 25 18 13 8
142 139 92 111 221 191 200 233 247 234 270 237 223 252 240 259 252 256 281 279 283 297 288 206 132 112 130 125 117 117 104 110 118 121 121 119 119 119 116 121 123 127 133 134 135 135 134 136 143 143 144 142 141 142 141 141 137 136 138 136 136 136 135 134 134 134 135 130 123 122 120 121 121 123 123 122 122 128 136 145 142 142 130 118 97 86 73 59 51 47 37 26 15 13 5 3 1
148 184 140 225 40 186 172 218 221 241 254 239 235 255 262 254 253 238 252 290 282 290 267 152 134 105 99 112 135 151 136 129 126 118 112 112 117 116 117 123 125 128 135 140 138 137 133 134 138 144 143 138 142 143 142 139 138 141 139 140 139 138 138 137 137 136 132 130 125 119 123 125 123 122 120 117 120 125 142 152 155 160 150 123 100 87 79 68 53 42 34 26 14 3 358 357 354
197 164 102 142 202 153 219 196 198 206 254 218 246 224 286 236 243 264 243 258 283 223 28 46 161 120 197 153 173 179 151 144 129 116 111 110 110 115 120 125 124 124 129 136 139 137 135 136 139 135 133 133 133 135 138 145 147 145 146 146 142 140 140 141 141 136 133 131 126 126 128 126 124 122 120 120 121 120 130 152 164 164 168 146 102 65 63 61 55 39 33 17 6 359 351 351 348
180 113 96 173 212 184 254 198 164 194 255 228 246 209 311 279 212 254 266 197 290 215 99 182 313 173 173 175 174 140 141 136 127 118 113 109 113 116 122 126 122 120 122 131 133 133 135 135 136 135 131 127 127 134 143 148 149 150 150 146 144 143 145 143 139 137 135 134 133 132 131 130 126 126 132 129 124 119 109 123 167 172 168 202 297 340 11 21 7 14 13 358 351 348 349 347 347
90 95 231 148 231 182 230 173 160 230 240 248 265 279 245 286 288 192 325 115 124 84 32 2 295 45 148 129 126 131 131 131 125 121 118 119 124 128 128 127 122 117 121 125 135 137 126 130 130 126 121 116 122 132 140 144 153 151 151 149 149 146 146 144 137 140 138 139 132 135 119 75 74 56 89 83 137 116 142 149 145 172 204 216 272 311 315 321 319 331 344 340 339 341 341 354 343
116 201 181 223 177 190 191 186 185 197 200 239 261 247 193 280 311 279 46 24 75 51 39 358 37 46 96 106 118 127 132 132 134 130 128 127 135 136 139 133 131 135 139 146 153 141 129 123 121 112 107 105 118 129 140 149 152 148 142 147 145 147 147 144 136 135 143 123 145 124 101 132 98 74 211 187 108 173 168 168 139 151 218 271 285 301 316 318 324 335 341 348 348 349 356 5 338
187 185 173 221 171 214 172 189 196 129 221 221 228 116 183 254 296 294 60 284 114 67 30 66 71 76 87 102 117 122 129 131 137 133 133 135 146 142 137 134 142 143 153 155 150 142 122 117 114 110 102 113 118 131 143 146 138 136 139 135 144 144 149 130 124 135 102 132 106 118 131 125 133 281 229 243 175 186 188 190 161 155 231 282 285 299 309 322 329 333 345 347 359 6 4 340 333
226 136 209 215 195 208 211 169 210 205 189 224 243 277 290 270 337 298 16 184 354 140 129 82 106 112 108 112 114 118 124 127 126 123 121 135 144 137 144 152 159 167 154 148 142 124 129 134 135 129 131 133 132 138 131 132 140 134 133 132 126 128 118 125 123 131 143 120 131 135 141 170 147 291 265 271 262 97 309 337 275 139 4 356 319 355 341 339 335 341 337 339 356 358 337 325 323
218 207 223 189 185 188 224 214 222 223 206 237 205 296 341 299 303 74 207 56 318 257 201 146 141 132 129 131 133 133 132 125 114 104 102 59 39 341 161 162 162 158 146 132 140 152 147 145 144 143 140 143 136 141 140 134 139 135 130 131 129 127 122 128 134 147 147 139 149 174 150 176 163 258 302 324 349 120 22 308 5 21 18 333 332 339 335 313 333 320 331 334 331 328 325 310 321
141 225 185 173 170 211 230 216 227 225 216 225 279 294 252 296 67 47 126 199 240 283 195 126 140 143 142 143 142 139 138 140 139 131 122 111 116 165 196 137 128 132 138 151 162 158 156 150 156 157 153 153 144 137 148 159 151 152 144 136 133 129 138 144 141 151 151 161 179 193 186 191 194 237 265 299 274 247 235 279 312 336 327 297 305 300 301 305 303 302 310 311 303 297 288 289 289
239 245 208 187 184 192 220 207 223 224 241 235 240 228 280 354 288 202 114 171 254 289 161 148 144 143 139 133 134 130 130 130 124 123 126 144 157 167 176 174 164 164 162 155 157 161 156 155 165 168 160 154 146 141 152 166 161 161 139 138 147 158 152 154 159 155 176 183 190 198 201 203 216 213 227 230 240 219 256 267 271 325 288 289 281 256 287 286 281 288 289 284 295 299 292 279 282
251 242 132 202 192 208 220 204 211 219 219 231 212 295 212 220 294 112 38 310 288 110 131 136 135 134 131 132 136 138 140 139 143 141 159 160 159 182 174 170 175 162 153 155 163 175 174 172 167 170 167 156 150 160 167 166 156 152 163 169 174 181 162 172 170 177 178 192 193 204 210 197 200 204 213 206 209 180 248 295 321 305 263 267 272 255 269 283 286 286 286 295 297 295 290 286 276
226 240 219 267 194 229 240 244 236 230 239 221 247 246 248 231 208 95 7 341 99 104 116 120 126 127 128 132 135 135 135 140 152 165 165 167 173 167 168 165 167 165 165 165 173 181 181 175 171 173 171 158 159 164 167 155 158 166 175 177 176 186 169 187 184 171 187 191 191 199 209 207 206 197 198 209 145 181 282 310 328 327 309 285 305 271 234 279 292 277 270 275 288 303 301 296 267
227 234 225 244 248 223 224 242 246 240 232 158 202 247 262 264 141 64 108 95 112 116 113 126 128 129 133 136 139 141 145 155 161 161 159 171 175 168 167 165 164 172 176 169 175 188 182 177 175 175 171 163 163 159 158 163 172 173 181 182 166 180 179 184 157 171 178 165 189 196 202 184 182 173 179 143 128 128 93 309 242 265 285 319 355 294 273 264 271 294 294 289 294 297 301 288 304
184 191 216 237 245 251 241 214 245 243 238 168 198 235 251 212 174 236 207 140 132 118 124 135 137 135 131 130 132 141 149 162 166 156 153 169 163 181 171 165 175 176 162 175 188 185 178 181 181 175 167 162 157 160 166 174 171 180 181 159 149 178 167 151 145 139 144 158 158 148 153 152 147 141 129 107 90 119 147 199 218 236 342 303 278 268 257 227 247 243 236 236 236 239 250 269 302
295 187 214 225 242 248 259 252 250 245 272 181 177 222 238 198 166 210 156 156 145 132 140 140 135 131 132 132 140 151 156 169 164 165 160 157 163 170 173 176 185 174 174 184 192 178 176 189 183 177 169 160 159 167 172 170 175 176 153 141 163 159 143 132 133 131 137 130 128 130 125 118 117 113 115 121 139 173 187 184 183 123 116 226 220 226 223 223 225 244 272 285 296 322 318 330 325
265 260 247 243 235 243 234 235 240 167 255 164 175 219 252 114 212 218 149 149 147 138 139 141 133 127 126 132 140 156 167 170 171 169 160 161 164 171 177 190 182 182 191 183 184 173 189 195 193 179 169 166 170 172 172 173 165 148 143 158 145 134 127 127 128 127 116 111 110 104 96 94 96 118 124 138 135 129 116 66 42 36 298 303 359 32 101 59 26 38 347 317 323 353 333 344 336
210 197 162 283 250 247 233 217 227 202 237 152 136 232 242 239 247 136 148 149 141 138 142 148 141 133 131 136 148 153 160 167 171 173 168 165 170 173 173 185 197 186 176 184 176 184 190 193 201 188 179 174 171 165 161 157 149 140 134 134 132 124 128 124 117 104 107 103 95 80 86 89 92 90 110 95 101 97 67 58 60 20 348 3 38 31 82 46 53 44 3 28 18 13 4 341 4
174 239 142 207 197 238 196 186 193 216 197 181 164 234 273 261 272 156 149 161 150 149 151 154 144 135 136 143 150 157 164 169 174 171 173 166 165 168 170 181 196 191 179 185 189 180 180 186 181 190 191 174 164 158 155 149 144 135 132 130 130 132 122 116 114 108 104 94 81 72 72 83 77 80 86 113 92 86 68 57 46 16 358 32 71 42 73 57 58 52 14 26 4 17 352 356 5
219 151 220 206 198 322 272 203 180 205 230 166 158 232 228 262 193 160 153 163 159 144 149 146 141 135 140 144 149 158 162 155 166 172 172 162 159 168 175 180 192 186 197 188 166 154 161 100 51 142 173 163 158 155 143 137 134 130 129 132 125 122 118 115 113 110 102 84 82 88 85 87 82 79 87 106 92 68 85 65 27 22 38 63 55 37 45 37 35 53 27 34 24 6 358 352 354
272 204 203 214 164 241 291 224 191 203 200 184 187 214 66 284 180 152 157 160 161 145 149 143 141 142 141 145 148 153 153 170 180 178 165 159 158 166 176 180 188 175 159 154 135 93 78 76 122 101 138 128 131 129 122 121 123 123 122 118 116 112 114 111 105 103 92 90 96 96 91 95 91 95 94 93 106 92 58 54 36 49 64 65 54 39 42 18 32 42 33 26 35 12 5 352 354
243 188 187 197 169 171 222 302 229 198 188 217 218 160 213 205 158 155 165 160 153 158 151 148 144 145 147 143 151 164 173 176 190 175 162 157 155 156 157 172 160 126 114 103 92 101 103 91 56 71 73 99 119 127 125 120 118 115 109 107 109 101 101 101 100 97 95 104 107 98 85 90 88 86 86 82 86 84 67 55 52 49 58 62 54 40 27 15 37 43 41 25 24 29 18 9 353
181 160 157 256 109 182 210 183 241 162 199 195 195 185 206 190 146 163 172 168 163 165 158 152 150 148 149 149 156 170 176 186 186 164 146 147 146 140 138 139 130 101 98 96 86 83 79 65 64 83 88 91 103 108 108 103 102 91 88 95 92 91 85 83 94 92 100 96 91 93 82 62 58 57 71 76 74 62 55 52 56 51 59 63 60 45 26 19 31 32 39 16 14 45 40 16 358
140 144 154 160 164 213 206 213 254 162 181 202 176 190 168 157 157 159 165 170 168 158 136 134 145 150 151 155 163 171 176 178 164 136 140 142 140 137 135 132 112 106 106 99 94 88 92 91 89 89 93 107 111 99 107 106 106 112 110 92 87 90 90 97 82 87 89 85 77 81 74 59 43 57 62 65 71 68 67 61 62 51 55 61 58 48 28 27 23 21 17 2 8 19 29 13 9
146 142 136 180 177 257 248 228 212 171 145 197 188 168 159 169 169 174 171 160 162 155 153 152 157 158 160 165 167 169 170 166 144 138 129 143 138 137 135 125 119 111 111 119 117 121 126 129 131 134 136 144 137 132 133 134 125 111 100 112 115 112 108 99 82 76 75 73 77 73 68 63 58 57 58 63 65 71 68 66 66 57 55 61 61 54 43 40 27 0 320 356 34 43 24 8 6
90 121 143 188 174 210 229 213 216 189 159 218 167 156 168 173 178 167 153 155 174 168 159 160 164 168 167 166 161 163 158 142 146 141 147 137 150 146 141 138 140 130 135 137 142 147 143 148 150 149 146 144 151 152 147 132 116 133 129 123 118 106 106 100 91 72 74 69 64 61 61 63 63 66 68 68 68 70 73 68 63 60 61 64 71 56 45 34 21 17 326 31 23 56 43 14 4
149 161 174 114 248 232 282 252 244 201 173 210 163 153 180 173 166 160 169 175 176 176 172 169 165 169 169 167 160 155 158 160 153 154 149 158 153 153 151 154 155 150 148 151 147 144 153 158 160 161 157 152 154 147 138 131 96 88 114 121 116 104 73 84 89 82 82 77 64 60 59 59 65 64 66 74 76 70 74 75 71 68 60 63 62 49 41 33 11 11 18 51 30 36 57 29 23
210 153 143 192 232 151 238 269 42 175 160 160 170 136 118 74 92 136 150 175 174 176 172 170 176 171 173 175 168 161 164 164 167 165 166 165 165 160 162 163 160 155 154 150 154 156 160 164 166 166 159 151 145 140 116 98 97 93 88 96 84 83 109 95 86 82 77 74 63 59 54 60 65 64 59 65 69 69 72 77 79 72 64 53 63 69 50 40 16 20 27 34 71 59 30 31 29
219 165 150 195 220 187 155 234 170 124 36 112 104 83 71 142 145 146 141 110 130 166 161 171 188 187 156 143 161 173 174 174 170 162 167 170 169 166 168 165 161 169 169 164 164 170 169 170 172 167 158 148 139 134 128 123 110 99 100 93 97 100 89 95 93 70 69 77 75 55 53 59 69 70 65 66 72 72 70 71 71 68 66 56 66 74 64 50 43 41 39 52 43 81 52 27 19
231 212 177 195 169 224 283 319 122 95 140 243 134 44 196 176 177 152 143 136 153 164 176 189 183 177 163 177 180 176 185 186 180 175 172 168 162 163 170 166 172 174 171 168 169 168 165 159 159 153 144 140 136 137 144 138 132 130 126 126 128 122 117 112 107 111 90 77 77 74 64 55 65 70 66 69 72 76 72 67 68 72 74 73 72 79 73 57 44 46 40 58 52 39 95 53 21
178 251 180 195 197 200 303 297 87 165 192 240 201 144 229 332 192 187 153 150 162 173 190 194 191 186 179 184 186 185 183 182 179 171 159 165 169 161 166 173 174 169 162 151 158 154 146 143 152 151 149 141 135 139 142 128 125 127 132 133 131 127 119 96 93 93 100 92 88 73 66 52 49 65 62 66 71 74 75 72 78 81 80 75 71 73 65 60 59 55 49 55 55 53 56 66 42
213 216 170 181 179 208 210 165 117 221 214 311 210 135 140 198 225 186 198 176 181 186 199 199 198 192 188 188 190 188 184 184 177 165 169 181 177 173 169 168 168 163 146 143 145 136 138 139 143 145 94 42 105 128 111 122 138 133 126 126 129 127 121 121 117 109 101 105 90 78 73 59 52 53 66 61 64 74 77 73 74 75 76 73 75 71 72 66 69 60 60 61 58 53 54 66 58
215 196 158 170 187 196 187 235 275 196 41 307 256 107 120 213 190 165 181 204 179 195 202 207 200 191 187 187 192 192 185 183 176 167 175 177 177 177 170 164 156 144 144 138 140 134 120 120 124 105 78 64 37 54 117 142 138 141 137 135 125 117 120 119 117 110 107 104 94 77 77 71 66 59 61 70 66 68 71 73 73 76 78 75 79 77 69 67 68 68 60 56 56 53 51 57 61
214 149 144 156 156 163 192 204 180 286 120 247 228 184 153 279 226 165 166 249 191 199 209 208 194 188 187 187 191 190 183 177 174 173 173 172 171 169 162 148 143 146 129 123 124 125 124 126 122 103 102 142 150 141 111 58 111 131 137 140 131 129 122 115 114 111 105 101 92 88 83 79 78 73 62 64 69 64 68 70 73 75 80 83 75 78 75 69 66 66 61 61 58 60 50 57 62
166 94 132 71 67 104 98 94 113 55 245 240 206 188 158 220 213 183 164 200 200 202 208 192 187 192 190 190 187 186 180 173 170 169 166 162 156 150 149 148 137 135 132 136 133 129 129 124 116 129 148 142 140 141 135 137 147 148 148 144 137 133 131 127 119 104 106 106 100 93 93 90 77 75 72 62 64 65 67 70 77 80 76 74 72 70 70 72 68 66 61 60 57 62 62 63 62
135 165 144 112 315 19 29 1 45 165 250 238 155 179 164 220 211 210 220 201 200 188 195 192 190 188 185 185 185 184 176 171 163 157 146 147 144 153 148 137 137 139 143 143 136 133 135 135 135 139 136 146 142 137 136 142 164 165 155 145 139 137 137 134 129 122 121 113 109 110 109 97 85 80 71 68 57 62 71 69 71 71 69 69 70 72 69 70 68 66 64 66 66 63 64 64 62
176 114 130 145 228 127 265 67 236 216 217 258 165 142 62 231 194 177 205 224 211 205 200 192 188 184 181 181 181 177 171 169 163 154 151 154 157 155 148 139 142 148 153 143 136 136 134 132 145 148 147 154 144 134 141 133 160 149 143 132 126 126 121 120 116 117 128 120 123 121 120 111 107 85 72 76 60 62 71 69 65 68 69 69 73 70 67 66 69 71 73 70 68 66 66 69 68
175 163 160 161 151 167 198 220 225 322 289 229 136 177 206 216 249 184 194 211 208 201 204 191 181 179 178 178 175 167 168 173 169 154 155 156 157 157 156 158 156 151 143 138 137 137 135 133 139 139 141 131 124 124 128 128 120 110 109 111 113 116 115 119 125 122 127 122 125 124 124 118 105 98 88 78 79 74 68 71 75 74 72 72 72 71 68 70 74 77 76 74 72 72 71 69 69
193 116 153 173 171 167 195 190 201 213 210 285 292 105 232 134 241 189 200 204 206 200 88 127 163 159 166 162 165 162 164 175 170 164 156 155 156 158 159 157 151 145 139 136 136 135 134 132 132 126 120 115 115 113 113 109 104 98 95 96 104 110 117 119 119 118 124 124 121 115 108 105 101 94 88 87 79 77 74 73 71 69 67 68 68 70 73 73 77 79 78 78 74 73 72 71 67
198 151 88 127 212 127 165 201 138 210 226 39 156 187 190 164 260 274 207 191 155 104 129 132 152 160 159 160 169 173 172 171 168 163 154 149 156 159 154 151 146 141 139 135 132 134 130 126 120 118 121 116 113 112 109 111 106 102 102 105 107 111 110 112 110 111 111 114 117 111 107 99 97 96 85 83 71 79 78 76 69 67 68 68 70 75 78 80 81 83 79 77 77 71 75 72 70
194 127 193 205 130 100 70 47 161 118 62 240 177 332 322 290 351 357 157 157 144 130 130 149 158 168 165 169 170 171 173 172 166 163 157 155 159 158 152 146 142 140 139 136 135 137 134 125 120 113 106 104 106 109 112 109 108 105 102 106 114 116 120 123 124 124 121 116 113 109 105 103 97 90 90 84 84 77 79 80 76 69 66 68 71 74 80 82 81 82 85 85 84 79 78 74 71
126 194 212 74 100 116 156 220 350 84 151 248 115 185 212 95 212 315 148 162 154 156 162 163 166 164 170 170 173 176 176 169 160 157 157 162 159 153 147 143 142 140 134 128 125 123 125 119 123 118 117 112 106 109 106 108 109 106 108 107 108 117 121 120 122 125 124 120 111 105 105 98 92 95 93 92 87 81 76 75 77 72 68 66 70 73 80 85 87 84 86 84 87 85 82 77 71
175 196 180 149 189 225 304 103 241 103 211 252 339 212 232 187 180 155 167 173 171 165 160 158 168 172 176 172 170 170 166 159 158 163 160 163 157 155 148 142 137 131 127 124 120 117 108 106 113 117 116 113 113 107 103 98 101 108 111 115 119 119 117 118 120 119 121 118 110 106 100 100 97 93 96 92 87 82 80 73 74 73 69 69 68 71 79 84 90 92 88 87 81 83 84 80 72
47 110 162 179 122 202 97 200 173 123 245 82 282 73 211 217 195 178 180 181 177 167 165 181 175 178 176 175 169 166 166 165 162 165 161 162 157 150 147 144 140 137 134 130 123 115 110 114 111 107 104 109 109 108 110 109 108 110 112 111 109 112 116 121 124 124 118 113 111 107 106 98 99 98 94 91 87 85 81 79 74 75 73 71 72 70 77 85 88 91 94 89 85 87 86 84 76
170 160 187 175 195 207 130 49 139 197 173 187 165 287 281 253 206 184 180 178 176 174 182 179 178 178 179 176 170 167 163 163 162 160 155 158 153 144 143 139 131 128 130 126 122 121 120 117 115 119 120 115 108 111 110 110 114 114 116 117 117 114 114 112 110 110 110 109 105 101 100 105 99 91 99 89 87 83 81 81 77 73 75 75 78 74 72 85 91 95 92 94 92 89 91 86 84
168 163 195 181 164 152 159 245 17 97 145 244 126 228 271 265 175 203 189 181 176 185 173 174 178 177 176 172 168 166 162 167 167 158 154 154 149 143 140 135 130 132 135 123 120 123 123 124 125 120 112 117 120 117 119 118 114 115 116 111 104 103 106 108 110 109 106 105 105 102 105 96 88 77 89 93 87 85 82 83 81 77 77 79 78 75 76 88 100 100 97 98 99 94 92 89 83